TimeCDT,TemperatureF,Dew PointF,Humidity,Sea Level PressureIn,VisibilityMPH,Wind Direction,Wind SpeedMPH,Gust SpeedMPH,PrecipitationIn,Events,Conditions,WindDirDegrees,DateUTC
12:53 AM,73.0,72.0,96,29.98,10.0,ENE,3.5,-,N/A,,Clear,60,2013-10-05 05:53:00
1:53 AM,73.0,71.1,93,29.97,10.0,ENE,3.5,-,N/A,,Clear,60,2013-10-05 06:53:00
2:20 AM,73.4,71.6,94,29.96,10.0,NE,4.6,-,N/A,,Scattered Clouds,50,2013-10-05 07:20:00
2:28 AM,73.4,71.6,94,29.96,4.0,ENE,5.8,-,N/A,,Mostly Cloudy,60,2013-10-05 07:28:00
2:35 AM,73.4,71.6,94,29.96,1.8,ENE,4.6,-,N/A,,Mostly Cloudy,70,2013-10-05 07:35:00
2:49 AM,73.4,73.4,100,29.96,0.5,ENE,4.6,-,N/A,Fog,Fog,70,2013-10-05 07:49:00
2:53 AM,73.0,73.0,100,29.96,0.5,ENE,4.6,-,N/A,Fog,Fog,70,2013-10-05 07:53:00
3:29 AM,73.4,73.4,100,29.95,1.5,ENE,6.9,-,N/A,,Overcast,70,2013-10-05 08:29:00
3:39 AM,73.4,73.4,100,29.95,2.0,ENE,8.1,-,N/A,,Overcast,70,2013-10-05 08:39:00
3:53 AM,73.9,73.0,97,29.95,2.0,East,6.9,-,N/A,,Overcast,80,2013-10-05 08:53:00
4:14 AM,73.4,73.4,100,29.95,3.0,East,8.1,-,N/A,,Overcast,80,2013-10-05 09:14:00
4:53 AM,73.9,73.9,100,29.95,5.0,East,6.9,-,N/A,,Overcast,80,2013-10-05 09:53:00
5:53 AM,75.0,73.9,96,29.96,7.0,ENE,6.9,-,N/A,,Overcast,70,2013-10-05 10:53:00
6:53 AM,75.0,73.9,96,29.97,6.0,ENE,6.9,-,N/A,,Overcast,70,2013-10-05 11:53:00
7:50 AM,75.2,73.4,94,29.98,5.0,East,6.9,-,0.00,Rain,Light Rain,90,2013-10-05 12:50:00
7:53 AM,75.0,73.9,96,29.98,4.0,East,8.1,-,0.01,Rain,Light Rain,90,2013-10-05 12:53:00
8:53 AM,75.9,73.0,91,29.99,10.0,East,3.5,-,0.19,,Overcast,80,2013-10-05 13:53:00
9:53 AM,80.1,75.9,87,29.98,4.0,ENE,8.1,-,0.06,,Mostly Cloudy,70,2013-10-05 14:53:00
10:01 AM,78.8,75.2,89,30.00,6.0,ESE,19.6,31.1,0.00,Rain,Rain,110,2013-10-05 15:01:00
10:53 AM,78.1,73.9,87,29.99,10.0,East,5.8,-,0.09,,Mostly Cloudy,90,2013-10-05 15:53:00
11:53 AM,82.0,75.0,79,29.97,10.0,East,11.5,-,N/A,,Mostly Cloudy,90,2013-10-05 16:53:00
12:53 PM,78.1,75.0,90,29.96,9.0,SSE,3.5,-,0.03,Rain,Light Rain,150,2013-10-05 17:53:00
1:53 PM,80.1,75.0,85,29.93,8.0,ESE,4.6,-,0.07,,Mostly Cloudy,110,2013-10-05 18:53:00
2:53 PM,82.9,73.9,74,29.91,10.0,SE,10.4,-,0.00,,Mostly Cloudy,130,2013-10-05 19:53:00
3:53 PM,81.0,73.9,79,29.90,10.0,SE,3.5,-,0.00,,Overcast,130,2013-10-05 20:53:00
4:53 PM,82.9,73.9,74,29.88,10.0,East,8.1,-,N/A,,Mostly Cloudy,90,2013-10-05 21:53:00
5:53 PM,81.0,72.0,74,29.89,10.0,ESE,10.4,-,N/A,,Overcast,110,2013-10-05 22:53:00
6:53 PM,79.0,72.0,79,29.89,10.0,ESE,5.8,-,N/A,,Scattered Clouds,110,2013-10-05 23:53:00
7:53 PM,75.9,72.0,87,29.91,10.0,East,3.5,-,N/A,,Clear,80,2013-10-06 00:53:00
8:53 PM,75.9,72.0,87,29.93,10.0,NE,4.6,-,N/A,,Partly Cloudy,50,2013-10-06 01:53:00
9:53 PM,75.0,73.0,94,29.93,10.0,ENE,4.6,-,N/A,,Partly Cloudy,70,2013-10-06 02:53:00
10:53 PM,73.9,72.0,93,29.91,10.0,East,5.8,-,N/A,,Clear,80,2013-10-06 03:53:00
11:53 PM,73.9,72.0,93,29.91,10.0,Calm,Calm,-,N/A,,Clear,0,2013-10-06 04:53:00